CZ-6A DEB, 61167

Orbit data source: Space-Track

CZ-6A DEB, 61167 is space debris in LEO originally from a launch on Tue, 06 Aug 2024 UTC launched from the Taiyaun Space Center, China (TSC). Debris objects in space refer to the collection of defunct objects orbiting the Earth. Examples of debris include non-operational satellites, rocket bodies, and fragments generated from explosions, collisions, or faulty payload assembly.

Loading next visibility...
Identifier
61167, 2024-140RM
Orbit
LEO
Country
Flag of CNCN / PRC
Related business
Manufacturer
SAST
Mission
Spacecraft
Bus & Motor
Unknown
Mass
Unknown
Launch date (UTC)
2024-08-06 (2 years ago)
Launch vehicle
Unknown
Launch site
Taiyaun Space Center, China (TSC)
Object type
Payload
Rocket body
Debris
Shape & HBR
Unknown shape, 0.1 m
Radar Cross Section
Small (<0.1 m²)

Expand to show TLE details & history
Last TLE update: 16 hours ago

TLE from 16 hours ago
0 CZ-6A DEB
1 61167U 24140RM  26129.84895605  .00003053  00000-0  93800-3 0  9991
2 61167  88.9613 274.1373 0038083 132.3988 228.0448 14.40970869 89958
Epoch: 2026-05-09T20:22Z
TLE epoch observation values (Epoch: 2026-05-09T20:22:29.802Z)
Latitude
0.00003°
Longitude
100.85263°
Altitude
776.599 km
Speed
7.456 km/s
True Right ascension
18h 16m 32s
True Declination
0° 00' 00"
Sunlit
Object was in full shadow at epoch
Visualization orbit readout
Latitude
Unknown
Longitude
Unknown
Altitude
Unknown
Speed
Unknown
Apparent Right ascension
Unknown
Apparent Declination
Unknown
Sunlit
N/A
Visualization observer readout
Local Sidereal Time
20:41:37
Azimuth
Unknown
Elevation
Unknown
Doppler factor
Unknown
Orbital elements
Apogee altitude
779.368 km
Perigee altitude
725.059 km
Semi-major axis
7,130.351 km
Eccentricity
0.00381
Inclination
88.9613°
RAAN
274.1373°
Arg. of periapsis
132.3988°
True anomaly
227.7213°
Mean anomaly
228.0448°
Eccentric anomaly
227.88294°
Mean motion
3.60476 °/min
Orbital period
99.87 mins
BSTAR
0.000938
Loading maneuver chart data...
Computing Atmospheric mass density...
Loading historical data...
Loading historical data...
Loading historical data...
Loading historical data...
Loading historical data...
Loading historical data...
Loading historical data...

Documentation

Showing up to 5 results
|